Location: Cheadle
(51.0146°N, 113.5417°W)
Time: 08:44:13
(UTC+00:00)

RS-44 - Visible Passes

Search period start: 06 December 2023 00:00
Search period end: 16 December 2023 00:00
Orbit: 1174 x 1511 km, 82.5° (Epoch: 05 December)

Date Brightness Start Highest point End Pass type
(mag) Time Alt. Az. Time Alt. Az. Time Alt. Az.
06 Dec ? 03:59:56 10° N 04:00:17 11° N 04:00:17 11° N visible
07 Dec ? 04:23:30 10° N 04:23:54 12° N 04:23:54 12° N visible
08 Dec ? 02:54:55 10° NNE 02:54:56 10° NNE 02:54:56 10° NNE visible
08 Dec ? 04:47:11 10° N 04:47:31 11° N 04:47:31 11° N visible
09 Dec ? 03:18:06 10° N 03:18:33 11° N 03:18:33 11° N visible
09 Dec ? 05:10:59 10° NNW 05:11:08 11° NNW 05:11:08 11° NNW visible
10 Dec ? 03:41:33 10° N 03:42:11 12° N 03:42:11 12° N visible
11 Dec ? 04:05:08 10° N 04:05:50 13° N 04:05:50 13° N visible
12 Dec ? 02:36:24 10° N 02:36:54 11° NNE 02:36:54 11° NNE visible
12 Dec ? 04:28:50 10° N 04:29:29 13° N 04:29:29 13° N visible
13 Dec ? 02:59:39 10° N 03:00:34 13° N 03:00:34 13° N visible
13 Dec ? 04:52:38 10° NNW 04:53:09 12° NNW 04:53:09 12° NNW visible
14 Dec ? 03:23:08 10° N 03:24:15 15° N 03:24:15 15° N visible
14 Dec ? 05:16:34 10° NNW 05:16:51 11° NNW 05:16:51 11° NNW visible
15 Dec ? 01:55:00 10° NNE 01:55:21 11° NNE 01:55:21 11° NNE visible
15 Dec ? 03:46:44 10° N 03:47:57 16° N 03:47:57 16° N visible
